Lexington Weather

Lexington, Massachusetts, USA

73°F
8/7/2020 11:31am 
  • Lexington Conditions: Clear
  • Temperature: 73.0°F / 22.8°CWarmer 2.5°F than last hour.
  • Dew Point: 63.9°FIncreased 0.9°Fsince last hour.
  • Relative Humidity: 73%Decreased 4.0% since last hour.
  • Wind: Wind from ESE ESE 1 mph, 10-min avg: Calm, gust: 2 mph
  • Barometer: 30.14 in Steady
  • Visibility: 10 miles
  • Rain Today: 0.00 in
  •   

Regional Weather Roundup
for Boston / Norton, MA

        
000
ASUS41 KBOX 011704
RWRBOX

REGIONAL WEATHER ROUNDUP
NATIONAL WEATHER SERVICE BOSTON/NORTON MA
100 PM EDT SAT AUG 01 2020

NOTE:  "FAIR" INDICATES FEW OR NO CLOUDS BELOW 12,000 FEET WITH NO 
SIGNIFICANT WEATHER AND/OR OBSTRUCTIONS TO VISIBILITY.

MAZALL-011800-
EASTERN MASSACHUSETTS
  
CITY           SKY/WX    TMP DP  RH WIND       PRES   REMARKS
BOSTON         MOSUNNY   80  63  55 E9        29.94F                  
BEVERLY        SUNNY     85  62  46 NE9       29.94S                  
LAWRENCE       MOSUNNY   85  64  49 VRB5      29.95F                  
BEDFORD        SUNNY     87  60  40 N7        29.93F                  
BLUE HILL      NOT AVBL                                               
NORWOOD        MOSUNNY   88  63  43 NW7       29.93S                  
MARSHFIELD     SUNNY     81  68  65 VRB7      29.94S                  
PLYMOUTH       SUNNY     83  65  54 NE9       29.94S                  
TAUNTON        SUNNY     89  60  37 VRB7      29.92F                  
NEW BEDFORD    PTSUNNY   85  67  54 CALM      29.92F                  
$$

MAZALL-011800-
CAPE COD AND THE ISLANDS
  
CITY           SKY/WX    TMP DP  RH WIND       PRES   REMARKS
FALMOUTH       MOSUNNY   84  63  48 NE3       29.94S                  
HYANNIS        SUNNY     85  62  46 N7        29.93S                  
CHATHAM        MOSUNNY   88  65  46 VRB5      29.95S HX  90           
PROVINCETOWN   SUNNY     79  71  76 N7        29.96R                  
NANTUCKET      SUNNY     77  67  71 SW6       29.95S                  
MARTHAS VNYRD  SUNNY     83  69  62 S9        29.94S                  
$$
 
MAZALL-011800-
CENTRAL AND WESTERN MASSACHUSETTS
  
CITY           SKY/WX    TMP DP  RH WIND       PRES   REMARKS
WORCESTER      SUNNY     84  56  38 NW10      29.98F                  
FITCHBURG      PTSUNNY   84  57  39 VRB5      29.95F                  
ORANGE         SUNNY     85  56  37 W9        29.97F                  
SPRINGFIELD    MOSUNNY   86  58  38 N6        29.94F                  
WESTFIELD      SUNNY     86  61  42 CALM      29.95F                  
NORTH ADAMS    SUNNY     83  59  44 MISG      29.97F                  
PITTSFIELD     MOSUNNY   80  62  54 NW5       29.99S                  
$$
 
RIZALL-011800-
RHODE ISLAND
  
CITY           SKY/WX    TMP DP  RH WIND       PRES   REMARKS
PROVIDENCE     MOSUNNY   90  60  36 VRB6      29.94S                  
NEWPORT        SUNNY     84  71  65 S12       29.94F                  
BLOCK ISLAND   SUNNY     84  66  54 W7        29.96S                  
SMITHFIELD     SUNNY     86  62  44 VRB3      29.96S                  
WESTERLY       MOSUNNY   83  66  56 S12       29.95S                  
$$
 
CTZALL-011800-
CONNECTICUT
  
CITY           SKY/WX    TMP DP  RH WIND       PRES   REMARKS
BRADLEY INTL   MOSUNNY   87  57  35 VRB3      29.94F                  
HARTFORD       MOSUNNY   88  59  37 VRB5      29.94F                  
BRIDGEPORT     SUNNY     83  67  58 S8        29.96S                  
DANBURY        SUNNY     85  60  42 VRB7      29.97F                  
GROTON         MOSUNNY   80  70  71 SW9       29.94S                  
NEW HAVEN      SUNNY     84  67  56 SW10      29.96S                  
CHESTER        NOT AVBL                                               
MERIDEN        SUNNY     89  57  33 W6        29.94F                  
WILLIMANTIC    MOSUNNY   87  58  37 W7        29.95S                  
OXFORD         PTSUNNY   84  63  49 VRB3      29.99S                  
$$

MEZ002-015-021-024-NHZ003-005-008-011-012-014-VTZ005-008-011800-
NORTHERN NEW ENGLAND
  
CITY           SKY/WX    TMP DP  RH WIND       PRES   REMARKS
PORTLAND ME    MOSUNNY   84  59  42 N6        29.93S                  
BANGOR ME      PTSUNNY   82  61  48 NW10      29.91F                  
CONCORD NH     SUNNY     85  56  37 W10       29.95S                  
MANCHESTER NH  MOSUNNY   87  57  35 VRB5      29.93F                  
NASHUA NH      MOSUNNY   85  60  42 VRB5      29.95S                  
PORTSMOUTH NH  MOSUNNY   82  58  43 SE6       29.92F                  
JAFFREY NH     MOSUNNY   81  58  45 VRB3      29.99F                  
KEENE NH       SUNNY     82  61  48 CALM      29.96F                  
BURLINGTON VT  MOSUNNY   84  59  42 NW6       29.96F                  
MT. WASHINGTON FOG       55  52  88 NW12        N/A  VSB 1/2          
$$

NYZ052-076-011800-
EASTERN NEW YORK
  
CITY           SKY/WX    TMP DP  RH WIND       PRES   REMARKS
ALBANY         MOSUNNY   81  61  50 N6        29.97S                  
NEW YORK CITY  PTSUNNY   88  61  40 E5        29.94F                  
$$
 
ANZALL-011800-
MARINE OBSERVATIONS
  
STATION/POSITION TIME  TEMP    WIND        PRES    VSBY  WAVE
                       AIR SEA DIR/SP/G                  HT/PER
                 (UTC) (F)     (DEG/KT/KT) (MB)    (MI)  (FT/S)
BOSTON BUOY      1650   73 74   40/  4/  6 1012.8S         2/10
BUZZARDS BAY     1600          200/  8/  8 1015.2R
NANTUCKET SOUND  1640      77  170/  6/  8 1013.1F
MASS BAY-STELLWA 1604   72      50/  6/  8 1012.0R  1 7/8  2/ 8
ISLE OF SHOALS   1600   71     110/  5/  6 1013.7F
S OF BLOCK IS    1626      75                N/A           3/ 9
$$

......................KEY.........................
  SKY/WX - SKY CONDITION/PRESENT WEATHER
  TMP    - TEMPERATURE IN FAHRENHEIT
  DWPT   - DEWPOINT IN FAHRENHEIT
  RH     - RELATIVE HUMIDITY IN PERCENT
  WIND   - DIRECTION AND SPEED IN MPH
  PRES   - MEAN SEA LEVEL PRESSURE IN INCHES OF HG
  WCI    - WIND CHILL INDEX
  VSB    - VISIBILITY IN MILES
  HX     - HEAT INDEX
  TC     - TEMPERATURE IN CELSIUS
  VRB    - VARIABLE WIND DIRECTION
  N/A    - NOT AVAILABLE
  
      

Other recent Regional Weather Roundups

Fri Aug 7, 11:04am

Fri Aug 7, 10:04am

Fri Aug 7, 9:04am

Fri Aug 7, 8:04am

Fri Aug 7, 7:04am

Fri Aug 7, 6:04am

Fri Aug 7, 5:04am

Fri Aug 7, 4:04am

Fri Aug 7, 3:04am

Fri Aug 7, 2:04am

Fri Aug 7, 1:05am

Fri Aug 7, 12:04am

Thu Aug 6, 11:04pm

Thu Aug 6, 10:04pm

Thu Aug 6, 9:04pm

Thu Aug 6, 8:04pm

Thu Aug 6, 7:04pm

Thu Aug 6, 6:04pm

Thu Aug 6, 5:04pm

Thu Aug 6, 4:05pm

Thu Aug 6, 3:04pm

Thu Aug 6, 2:05pm

Thu Aug 6, 1:04pm

Thu Aug 6, 12:04pm

Thu Aug 6, 11:04am

Thu Aug 6, 10:04am

Thu Aug 6, 9:04am

Thu Aug 6, 8:04am

Thu Aug 6, 7:04am

Thu Aug 6, 6:04am

Thu Aug 6, 5:04am

Thu Aug 6, 4:04am

Thu Aug 6, 3:04am

Thu Aug 6, 2:05am

Thu Aug 6, 1:04am

Thu Aug 6, 12:04am

Wed Aug 5, 11:04pm

Wed Aug 5, 10:04pm

Wed Aug 5, 9:04pm

Wed Aug 5, 8:05pm

Wed Aug 5, 7:04pm

Wed Aug 5, 6:04pm

Wed Aug 5, 5:04pm

Wed Aug 5, 4:05pm

Wed Aug 5, 3:04pm

Wed Aug 5, 2:04pm

Wed Aug 5, 1:04pm

Wed Aug 5, 12:04pm

Wed Aug 5, 11:04am

Wed Aug 5, 10:04am

Wed Aug 5, 9:04am

Wed Aug 5, 8:04am

Wed Aug 5, 7:04am

Wed Aug 5, 6:04am

Wed Aug 5, 5:04am

Wed Aug 5, 4:04am

Wed Aug 5, 3:04am

Wed Aug 5, 2:05am

Wed Aug 5, 1:04am

Wed Aug 5, 12:05am

Tue Aug 4, 11:05pm

Tue Aug 4, 10:05pm

Tue Aug 4, 9:04pm

Tue Aug 4, 8:04pm

Tue Aug 4, 7:05pm

Tue Aug 4, 6:05pm

Tue Aug 4, 5:05pm

Tue Aug 4, 4:05pm

Tue Aug 4, 3:04pm

Tue Aug 4, 2:05pm

Tue Aug 4, 1:04pm

Tue Aug 4, 12:05pm

Tue Aug 4, 11:04am

Tue Aug 4, 10:04am

Tue Aug 4, 9:04am

Tue Aug 4, 8:04am

Tue Aug 4, 7:04am

Tue Aug 4, 6:04am

Tue Aug 4, 5:04am

Tue Aug 4, 4:04am

Tue Aug 4, 3:04am

Tue Aug 4, 2:04am

Tue Aug 4, 1:04am

Tue Aug 4, 12:04am

Mon Aug 3, 11:04pm

Mon Aug 3, 10:04pm

Mon Aug 3, 9:04pm

Mon Aug 3, 8:05pm

Mon Aug 3, 7:04pm

Mon Aug 3, 6:04pm

Mon Aug 3, 5:04pm

Mon Aug 3, 4:05pm

Mon Aug 3, 3:04pm

Mon Aug 3, 2:04pm

Mon Aug 3, 1:04pm

Mon Aug 3, 12:05pm

Mon Aug 3, 11:04am

Mon Aug 3, 10:04am

Mon Aug 3, 9:05am

Mon Aug 3, 8:04am

Mon Aug 3, 7:04am

Mon Aug 3, 6:04am

Mon Aug 3, 5:04am

Mon Aug 3, 4:04am

Mon Aug 3, 3:04am

Mon Aug 3, 2:04am

Mon Aug 3, 1:04am

Mon Aug 3, 12:05am

Sun Aug 2, 11:04pm

Sun Aug 2, 10:04pm

Sun Aug 2, 9:04pm

Sun Aug 2, 8:04pm

Sun Aug 2, 7:04pm

Sun Aug 2, 6:04pm

Sun Aug 2, 5:04pm

Sun Aug 2, 4:05pm

Sun Aug 2, 3:04pm

Sun Aug 2, 2:05pm

Sun Aug 2, 1:04pm

Sun Aug 2, 12:04pm

Sun Aug 2, 11:04am

Sun Aug 2, 10:04am

Sun Aug 2, 9:05am

Sun Aug 2, 8:05am

Sun Aug 2, 7:04am

Sun Aug 2, 6:04am

Sun Aug 2, 5:04am

Sun Aug 2, 4:05am

Sun Aug 2, 3:04am

Sun Aug 2, 2:04am

Sun Aug 2, 1:04am

Sun Aug 2, 12:05am

Sat Aug 1, 11:04pm

Sat Aug 1, 10:04pm

Sat Aug 1, 9:04pm

Sat Aug 1, 8:05pm

Sat Aug 1, 7:04pm

Sat Aug 1, 6:04pm

Sat Aug 1, 5:05pm

Sat Aug 1, 4:05pm

Sat Aug 1, 3:04pm

Sat Aug 1, 2:04pm

Sat Aug 1, 12:04pm

Sat Aug 1, 11:05am

Sat Aug 1, 10:05am

Sat Aug 1, 9:04am

Sat Aug 1, 8:04am

Sat Aug 1, 7:04am

Sat Aug 1, 6:04am

Sat Aug 1, 5:04am

Sat Aug 1, 4:05am

Sat Aug 1, 3:04am

Sat Aug 1, 2:04am

Sat Aug 1, 1:04am

Sat Aug 1, 12:05am

Fri Jul 31, 11:05pm

Fri Jul 31, 10:04pm

Fri Jul 31, 9:04pm

Fri Jul 31, 8:05pm

Fri Jul 31, 7:05pm

Fri Jul 31, 6:04pm

Fri Jul 31, 5:04pm

Fri Jul 31, 4:05pm

Fri Jul 31, 3:04pm

Fri Jul 31, 2:05pm

Fri Jul 31, 1:04pm

Fri Jul 31, 12:04pm

Meta data:

ID: a39cb84f-205a-4d1f-a73c-8faef8765194
Link: https://api.weather.gov/products/a39cb84f-205a-4d1f-a73c-8faef8765194